Location: Ottawa
(45.4170°N, 75.7000°W)
Time: 06:34:02
(UTC-05:00)

ISS - Pass Details

Date: 14 February 2026
Orbit: 416 x 427 km, 51.6° (Epoch: 5 March)

Event Time Altitude Azimuth Distance (km) Brightness Sun altitude
Exits shadow 06:31:38 - 245° (WSW) 2,002 -0.8 -6.6°
Reaches altitude 10° 06:32:53 10° 246° (WSW) 1,490 -1.4 -6.4°
Maximum altitude 06:36:14 76° 333° (NNW) 433 -3.8 -5.8°
Drops below altitude 10° 06:39:35 10° 59° (ENE) 1,494 -0.2 -5.3°
Sets 06:41:41 0° 61° (ENE) 2,359 0.9 -4.9°
